OBJECT BX, 68485

Orbit data source: Space-Track

You're viewing an Uncataloged Satellite

Recently launched and/or uncataloged satellites may have evolving metadata. Metadata may include but not limited to: Owner, Maufacturer, Bus, Motor, and Mission.

OBJECT BX, 68485 is a satellite in SSO that was launched on Mon, 30 Mar 2026 UTC via an FALCON 9 launch vehicle from the Air Force Western Test Range (AFWTR). Unknown objects in Earth's orbit typically refer to objects detected orbiting the Earth but have not yet been identified or cataloged. These objects could be anything from previously untracked satellites, spent rocket stages, debris from satellite collisions, or even natural meteoroids temporarily captured by Earth's gravity.

Loading next visibility...
Identifier
68485, 2026-067BX
Orbit
SSO
Country
Flag of TBDTBD
Related business
None
Manufacturer
Unknown
Mission
Operational spacecraft
Bus & Motor
Unknown
Mass
Unknown
Launch date (UTC)
2026-03-30 (1 month ago)
Launch vehicle
FALCON 9
Launch site
Air Force Western Test Range (AFWTR)
Object type
Unknown
Shape & HBR
Unknown shape, 1.1 m
Radar Cross Section
RCS unknown

Expand to show TLE details & history
Last TLE update: 12 hours ago

TLE from 12 hours ago
0 OBJECT BX
1 68485U 26067BX  26127.12481352  .00006262  00000-0  62144-3 0  9992
2 68485  97.7566  86.0304 0003487  80.3107 279.8506 14.92096240  5600
Epoch: 2026-05-07T02:59Z
TLE epoch observation values (Epoch: 2026-05-07T02:59:43.888Z)
Latitude
0.00003°
Longitude
176.12208°
Altitude
594.028 km
Speed
7.563 km/s
True Right ascension
05h 44m 07s
True Declination
0° 00' 00"
Sunlit
Object was in daylight at epoch
Visualization orbit readout
Latitude
Unknown
Longitude
Unknown
Altitude
Unknown
Speed
Unknown
Apparent Right ascension
Unknown
Apparent Declination
Unknown
Sunlit
N/A
Visualization observer readout
Local Sidereal Time
23:12:26
Azimuth
Unknown
Elevation
Unknown
Doppler factor
Unknown
Orbital elements
Apogee altitude
590.848 km
Perigee altitude
585.989 km
Semi-major axis
6,966.556 km
Eccentricity
0.00035
Inclination
97.7566°
RAAN
86.0304°
Arg. of periapsis
80.3107°
True anomaly
279.81123°
Mean anomaly
279.8506°
Eccentric anomaly
279.83091°
Mean motion
3.73264 °/min
Orbital period
96.45 mins
BSTAR
0.00062144
Loading maneuver chart data...
Computing Atmospheric mass density...
Loading historical data...
Loading historical data...
Loading historical data...
Loading historical data...
Loading historical data...
Loading historical data...
Loading historical data...

Documentation

Showing up to 5 results
|